{"data":{"norad_id":49752,"epoch":"2026-05-25T01:14:37.320576Z","epoch_age_seconds":66426,"freshness":"FRESH","line1":"1 49752U 21115AE  26145.05182084 -.00000821  00000+0 -33501-4 0  9991","line2":"2 49752  53.2136 156.3271 0001346  70.8257 289.2880 15.08834365247202","mean_motion":15.08834365,"eccentricity":0.0001346,"inclination_deg":53.2136,"raan_deg":156.3271,"arg_perigee_deg":70.8257,"mean_anomaly_deg":289.288,"bstar":-3.3501e-5,"rev_number":24720,"period_min":95.437911105637,"perigee_km":538.82946393969,"apogee_km":540.6917619771,"semimajor_km":6917.8976129584,"source":"CELESTRAK","updated_at":"2026-05-25T13:38:16.837283Z"}}